Data for 06/21/2017

Time Sea-Level Adjusted Pressure Absolute Pressure Temperature Relative Humidity Dew Point   
(mb) (inHg) (mb) (inHg) (C) (F) (%) (C) (F)
00:05 1017 30.03 846 24.98 17.7 63.9 61 10.3 50.5
00:10 1017 30.03 847 25.01 17.4 63.4 63 10.4 50.8
00:15 1017 30.03 847 25.01 17.3 63.2 60 9.6 49.2
00:20 1017 30.03 847 25.01 17.7 63.8 60 9.9 49.9
00:25 1017 30.03 847 25.01 17.7 63.9 58 9.6 49.2
00:30 1017 30.03 847 25.01 17.9 64.3 58 9.6 49.3
00:35 1017 30.03 847 25.01 18 64.4 58 9.6 49.3
00:40 1017 30.03 847 25.01 18.3 64.9 55 9.1 48.4
00:45 1017 30.03 847 25.01 18.5 65.3 54 9.1 48.5
00:50 1018 30.06 847 25.01 18.5 65.3 56 9.7 49.4
00:55 1018 30.06 847 25.01 18.3 65 56 9.5 49
01:00 1018 30.06 847 25.01 18.1 64.6 54 8.9 48
01:05 1018 30.06 847 25.01 18.1 64.6 55 9 48.2
01:10 1017 30.03 847 25.01 17.9 64.3 53 8.4 47.2
01:15 1017 30.03 847 25.01 18.1 64.7 55 9.1 48.4
01:20 1017 30.03 847 25.01 17.8 64.1 55 8.7 47.7
01:25 1017 30.03 847 25.01 17.8 64 55 8.6 47.5
01:30 1017 30.03 847 25.01 17.8 64.1 55 8.7 47.7
01:35 1017 30.03 847 25.01 17.8 64 54 8.6 47.4
01:40 1018 30.06 847 25.01 17.7 63.8 55 8.8 47.8
01:45 1018 30.06 847 25.01 17.4 63.3 56 8.6 47.4
01:50 1018 30.06 847 25.01 17.4 63.4 55 8.5 47.2
01:55 1017 30.03 847 25.01 17.5 63.6 55 8.5 47.3
02:00 1017 30.03 847 25.01 17.6 63.6 55 8.5 47.4
02:05 1017 30.03 847 25.01 17.5 63.5 56 8.7 47.6
02:10 1017 30.03 847 25.01 17.4 63.3 56 8.6 47.5
02:15 1017 30.03 847 25.01 17.1 62.9 58 8.8 47.8
02:20 1018 30.06 847 25.01 16.9 62.5 58 8.7 47.6
02:25 1018 30.06 847 25.01 16.9 62.4 58 8.6 47.4
02:30 1018 30.06 847 25.01 16.7 62 64 9.9 49.9
02:35 1018 30.06 847 25.01 15.7 60.2 63 8.8 47.8
02:40 1018 30.06 847 25.01 16.2 61.1 62 8.9 48
02:45 1018 30.06 847 25.01 16.4 61.5 61 9 48.3
02:50 1018 30.06 847 25.01 16.4 61.5 62 9.1 48.4
02:55 1018 30.06 847 25.01 16.4 61.5 61 9.1 48.3
03:00 1018 30.06 847 25.01 16.6 61.8 61 9 48.2
03:05 1018 30.06 847 25.01 16.6 61.9 61 9.1 48.4
03:10 1018 30.06 847 25.01 16.6 61.9 60 9 48.1
03:15 1018 30.06 847 25.01 16.6 61.9 60 8.8 47.9
03:20 1018 30.06 847 25.01 16.7 62 58 8.4 47
03:25 1018 30.06 848 25.04 16.7 62.1 55 7.8 46
03:30 1018 30.06 848 25.04 16.9 62.3 55 7.8 46.1
03:35 1018 30.06 848 25.04 16.8 62.3 54 7.6 45.7
03:40 1018 30.06 848 25.04 16.9 62.3 54 7.5 45.5
03:45 1019 30.09 848 25.04 16.8 62.3 53 7.3 45.1
03:50 1019 30.09 848 25.04 16.7 62.1 53 7.1 44.8
03:55 1019 30.09 848 25.04 16.6 61.9 53 7 44.5
04:00 1019 30.09 848 25.04 16.5 61.6 52 6.8 44.2
04:05 1019 30.09 848 25.04 16.5 61.6 52 6.7 44.1
04:10 1019 30.09 848 25.04 16.4 61.4 52 6.7 44
04:15 1019 30.09 848 25.04 16.3 61.3 52 6.6 43.9
04:20 1019 30.09 848 25.04 16.2 61.1 52 6.4 43.6
04:25 1019 30.09 848 25.04 16.2 61.1 52 6.5 43.7
04:30 1019 30.09 848 25.04 16.1 60.9 52 6.2 43.2
04:35 1019 30.09 848 25.04 16.2 61.1 51 6.1 43.1
04:40 1019 30.09 848 25.04 16.2 61.2 51 6.3 43.3
04:45 1019 30.09 848 25.04 16.2 61.2 51 6.1 43
04:50 1019 30.09 848 25.04 16.2 61.1 51 6.1 43
04:55 1019 30.09 848 25.04 16.2 61.2 50 6 42.9
05:00 1019 30.09 848 25.04 16.6 61.8 49 5.8 42.5
05:05 1019 30.09 848 25.04 16.9 62.3 49 6.1 42.9
05:10 1019 30.09 848 25.04 16.9 62.5 51 6.8 44.2
05:15 1019 30.09 848 25.04 16.6 61.9 52 6.9 44.3
05:20 1019 30.09 848 25.04 16 60.8 53 6.6 43.9
05:25 1019 30.09 848 25.04 16 60.9 54 6.8 44.2
05:30 1019 30.09 848 25.04 15.8 60.4 55 7 44.5
05:35 1019 30.09 848 25.04 15.5 59.9 55 6.7 44
05:40 1019 30.09 848 25.04 15.6 60.1 56 6.9 44.4
05:45 1019 30.09 848 25.04 15.6 60 57 7.1 44.7
05:50 1019 30.09 848 25.04 15.8 60.4 56 7 44.7
05:55 1019 30.09 848 25.04 16 60.9 56 7.3 45.1
06:00 1019 30.09 848 25.04 15.9 60.6 57 7.4 45.4
06:05 1019 30.09 848 25.04 16.1 61 54 7 44.6
06:10 1019 30.09 848 25.04 16.7 62.1 51 6.7 44.1
06:15 1019 30.09 848 25.04 17.3 63.1 50 6.7 44.1
06:20 1019 30.09 848 25.04 17.6 63.7 49 6.8 44.2
06:25 1019 30.09 848 25.04 17.8 64.1 50 7.5 45.5
06:30 1019 30.09 849 25.07 18.1 64.5 47 6.8 44.3
06:35 1019 30.09 849 25.07 17.7 63.9 47 6.4 43.6
06:40 1020 30.12 849 25.07 17.7 63.8 46 6.1 42.9
06:45 1020 30.12 849 25.07 17.9 64.2 46 6.2 43.2
06:50 1020 30.12 849 25.07 18.3 65 46 6.6 43.8
06:55 1020 30.12 849 25.07 18.8 65.9 45 6.8 44.2
07:00 1020 30.12 849 25.07 18.9 65.9 45 6.9 44.4
07:05 1020 30.12 849 25.07 18.9 66 44 6.6 43.9
07:10 1020 30.12 849 25.07 19.2 66.5 44 6.8 44.2
07:15 1020 30.12 849 25.07 19.3 66.7 44 6.9 44.4
07:20 1020 30.12 849 25.07 19.6 67.3 42 6.5 43.7
07:25 1020 30.12 849 25.07 19.8 67.6 42 6.8 44.2
07:30 1020 30.12 849 25.07 19.7 67.5 42 6.7 44.1
07:35 1020 30.12 849 25.07 19.7 67.5 42 6.5 43.7
07:40 1020 30.12 849 25.07 20 67.9 41 6.5 43.7
07:45 1020 30.12 849 25.07 20.2 68.4 41 6.5 43.8
07:50 1020 30.12 849 25.07 20.2 68.4 41 6.8 44.3
07:55 1020 30.12 849 25.07 19.6 67.2 43 6.6 43.9
08:00 1020 30.12 849 25.07 20.2 68.3 43 7.2 44.9
08:05 1020 30.12 849 25.07 20.3 68.5 43 7.4 45.3
08:10 1020 30.12 849 25.07 20.2 68.3 41 6.8 44.2
08:15 1020 30.12 849 25.07 20.5 68.8 40 6.6 43.9
08:20 1020 30.12 849 25.07 20.7 69.2 40 6.6 43.9
08:25 1020 30.12 849 25.07 20.6 69.1 40 6.7 44
08:30 1020 30.12 849 25.07 19.5 67 42 6.3 43.4
08:35 1019 30.09 849 25.07 20 68 38 5.4 41.6
08:40 1019 30.09 849 25.07 20.4 68.7 41 6.8 44.2
08:45 1019 30.09 849 25.07 20.7 69.2 38 6.2 43.1
08:50 1019 30.09 849 25.07 20.7 69.2 40 6.7 44.1
08:55 1019 30.09 849 25.07 21.1 70 38 6.4 43.4
09:00 1019 30.09 849 25.07 21.4 70.6 37 6.3 43.4
09:05 1019 30.09 849 25.07 21.5 70.7 38 6.6 43.9
09:10 1019 30.09 849 25.07 21.5 70.6 37 6.4 43.5
09:15 1019 30.09 849 25.07 21.4 70.5 36 6 42.7
09:20 1019 30.09 848 25.04 21.7 71.1 37 6.4 43.6
09:25 1019 30.09 848 25.04 21.5 70.7 36 5.9 42.7
09:30 1019 30.09 848 25.04 22 71.6 33 5.3 41.5
09:35 1019 30.09 848 25.04 22 71.6 35 6.1 43.1
09:40 1019 30.09 848 25.04 21.5 70.7 36 6 42.8
09:45 1019 30.09 848 25.04 21.6 71 36 6 42.9
09:50 1019 30.09 848 25.04 21.8 71.3 36 6.1 43
09:55 1019 30.09 848 25.04 21.8 71.3 35 5.7 42.3
10:00 1019 30.09 848 25.04 22.1 71.7 33 5.4 41.8
10:05 1019 30.09 848 25.04 22.4 72.3 33 5.4 41.7
10:10 1019 30.09 848 25.04 22.4 72.2 35 6.3 43.3
10:15 1019 30.09 848 25.04 22.4 72.3 33 5.4 41.6
10:20 1019 30.09 848 25.04 22.2 72 33 5.5 41.9
10:25 1019 30.09 848 25.04 22.4 72.2 33 5.6 42
10:30 1019 30.09 848 25.04 22.4 72.3 32 5.2 41.3
10:35 1019 30.09 848 25.04 22.5 72.5 33 5.4 41.7
10:40 1019 30.09 848 25.04 22.6 72.6 33 5.6 42
10:45 1019 30.09 848 25.04 23 73.3 31 5.3 41.6
10:50 1019 30.09 848 25.04 23.1 73.6 33 6.3 43.3
10:55 1019 30.09 848 25.04 22.5 72.5 35 6.5 43.7
11:00 1019 30.09 848 25.04 21.5 70.7 37 6.4 43.6
11:05 1019 30.09 848 25.04 22.4 72.3 34 6 42.8
11:10 1019 30.09 848 25.04 22.7 72.9 33 6 42.7
11:15 1019 30.09 848 25.04 23.1 73.5 34 6.5 43.7
11:20 1018 30.06 848 25.04 22.7 72.9 35 6.8 44.2
11:25 1018 30.06 847 25.01 22.6 72.8 36 6.9 44.4
11:30 1018 30.06 847 25.01 22.9 73.2 33 5.9 42.7
11:35 1018 30.06 847 25.01 23.3 73.9 35 7.1 44.8
11:40 1018 30.06 847 25.01 23.4 74.1 33 6.2 43.2
11:45 1018 30.06 847 25.01 23.3 74 34 6.6 43.9
11:50 1018 30.06 847 25.01 22.8 73 35 6.5 43.7
11:55 1018 30.06 847 25.01 23.2 73.7 33 6.2 43.1
12:00 1018 30.06 847 25.01 23.1 73.7 34 6.5 43.6
12:05 1018 30.06 847 25.01 22.9 73.2 33 6 42.7
12:10 1018 30.06 847 25.01 23.7 74.7 32 6.2 43.2
12:15 1018 30.06 847 25.01 24.1 75.4 33 6.9 44.4
12:20 1017 30.03 847 25.01 24.1 75.3 32 6.6 43.9
12:25 1017 30.03 847 25.01 23.7 74.6 32 6.2 43.1
12:30 1017 30.03 846 24.98 24.5 76.2 31 6.5 43.7
12:35 1017 30.03 846 24.98 25.1 77.1 30 6.4 43.6
12:40 1017 30.03 846 24.98 24.4 75.9 31 6.3 43.4
12:45 1017 30.03 846 24.98 24.3 75.8 32 6.6 43.8
12:50 1017 30.03 846 24.98 24.4 75.9 31 6.3 43.3
12:55 1017 30.03 846 24.98 24.5 76.1 31 6.4 43.5
13:00 1017 30.03 846 24.98 24.5 76 31 6.3 43.3
13:05 1017 30.03 846 24.98 25 77 30 6.2 43.2
13:10 1017 30.03 846 24.98 24.5 76 33 7.2 44.9
13:15 1017 30.03 846 24.98 24.6 76.2 30 6.1 43
13:20 1017 30.03 846 24.98 24.8 76.6 32 7.1 44.8
13:25 1017 30.03 846 24.98 25.3 77.5 29 6.4 43.6
13:30 1017 30.03 846 24.98 25.7 78.3 29 6.8 44.2
13:35 1016 30 846 24.98 25.8 78.4 29 6.5 43.8
13:40 1016 30 846 24.98 25.8 78.5 29 6.5 43.7
13:45 1016 30 845 24.95 25.6 78.1 30 7.2 45
13:50 1016 30 845 24.95 25.2 77.4 30 6.9 44.4
13:55 1016 30 845 24.95 25.6 78 30 6.9 44.4
14:00 1016 30 845 24.95 25.4 77.7 29 6.5 43.7
14:05 1016 30 845 24.95 25.8 78.4 26 5.3 41.6
14:10 1016 30 845 24.95 26.4 79.5 27 5.9 42.6
14:15 1016 30 845 24.95 26.5 79.6 27 6.3 43.4
14:20 1016 30 845 24.95 26.4 79.5 27 5.9 42.6
14:25 1016 30 845 24.95 26.6 79.8 25 5.4 41.8
14:30 1016 30 845 24.95 26.3 79.4 24 4.3 39.8
14:35 1016 30 845 24.95 26.2 79.2 24 4.1 39.4
14:40 1016 30 845 24.95 26.9 80.4 22 3.9 39
14:45 1016 30 845 24.95 26.9 80.5 21 3.1 37.6
14:50 1016 30 845 24.95 26.7 80.1 21 3.1 37.5
14:55 1016 30 845 24.95 26.7 80 21 2.8 37
15:00 1016 30 845 24.95 26.9 80.3 20 2 35.6
15:05 1015 29.97 845 24.95 26.6 79.8 19 1.7 35.1
15:10 1015 29.97 845 24.95 26.6 79.8 21 2.4 36.4
15:15 1015 29.97 845 24.95 26.8 80.3 20 2.5 36.5
15:20 1015 29.97 845 24.95 26.9 80.5 19 1.6 34.8
15:25 1015 29.97 845 24.95 27 80.6 20 2.1 35.8
15:30 1015 29.97 844 24.92 27.5 81.5 19 2.4 36.3
15:35 1015 29.97 844 24.92 27.5 81.5 20 3 37.5
15:40 1015 29.97 844 24.92 27.2 81 19 1.5 34.8
15:45 1015 29.97 844 24.92 27.3 81.1 18 0.9 33.5
15:50 1015 29.97 844 24.92 27.4 81.3 17 0.7 33.2
15:55 1015 29.97 844 24.92 27.9 82.2 16 0 32
16:00 1015 29.97 844 24.92 28.1 82.6 17 1.2 34.2
16:05 1015 29.97 844 24.92 27.8 82 16 -0.1 31.9
16:10 1015 29.97 844 24.92 27.4 81.4 16 0.1 32.1
16:15 1015 29.97 844 24.92 27.4 81.3 16 -0.7 30.8
16:20 1015 29.97 844 24.92 27.4 81.3 15 -0.9 30.4
16:25 1015 29.97 844 24.92 27.2 80.9 15 -1.4 29.5
16:30 1015 29.97 844 24.92 26.8 80.3 15 -2 28.3
16:35 1015 29.97 844 24.92 26.8 80.2 14 -2.4 27.7
16:40 1015 29.97 844 24.92 26.7 80.1 15 -1.9 28.5
16:45 1015 29.97 844 24.92 26.7 80.1 15 -1.8 28.8
16:50 1015 29.97 844 24.92 26.8 80.2 14 -2.3 27.9
16:55 1015 29.97 844 24.92 26.7 80 15 -2.3 27.9
17:00 1015 29.97 844 24.92 26.6 79.9 15 -2.3 27.8
17:05 1015 29.97 844 24.92 26.6 79.9 14 -2.5 27.5
17:10 1015 29.97 844 24.92 26.5 79.8 15 -2 28.4
17:15 1015 29.97 844 24.92 26.8 80.2 14 -2.7 27.1
17:20 1015 29.97 844 24.92 26.5 79.8 14 -3 26.5
17:25 1015 29.97 844 24.92 26.3 79.4 14 -3 26.7
17:30 1015 29.97 844 24.92 26.2 79.2 14 -3 26.7
17:35 1015 29.97 844 24.92 26.3 79.3 14 -2.8 26.9
17:40 1015 29.97 844 24.92 26.2 79.1 15 -2.1 28.3
17:45 1015 29.97 844 24.92 26.1 79 15 -2.4 27.7
17:50 1015 29.97 844 24.92 26 78.8 15 -2.3 27.9
17:55 1015 29.97 844 24.92 25.7 78.3 15 -2.9 26.8
18:00 1015 29.97 844 24.92 25.8 78.4 15 -2.6 27.4
18:05 1015 29.97 844 24.92 25.9 78.6 15 -2.9 26.8
18:10 1015 29.97 844 24.92 25.7 78.2 17 -1.1 30.1
18:15 1015 29.97 844 24.92 25.7 78.2 16 -1.8 28.7
18:20 1015 29.97 844 24.92 25.6 78 15 -2.6 27.4
18:25 1015 29.97 844 24.92 25.5 77.9 16 -2.3 27.9
18:30 1015 29.97 844 24.92 25.4 77.7 16 -1.8 28.7
18:35 1015 29.97 844 24.92 25.1 77.2 17 -1 30.1
18:40 1015 29.97 844 24.92 24.9 76.8 17 -1.5 29.2
18:45 1015 29.97 844 24.92 24.8 76.6 16 -2.5 27.5
18:50 1015 29.97 844 24.92 24.6 76.3 15 -3.3 26.1
18:55 1015 29.97 845 24.95 24.4 76 15 -3.6 25.5
19:00 1015 29.97 845 24.95 24.4 75.9 16 -2.7 27.2
19:05 1015 29.97 845 24.95 24.2 75.5 17 -2.4 27.7
19:10 1015 29.97 845 24.95 24 75.1 18 -1.6 29.1
19:15 1015 29.97 845 24.95 23.8 74.9 19 -1.2 29.9
19:20 1015 29.97 845 24.95 23.6 74.5 18 -1.9 28.5
19:25 1016 30 845 24.95 23.5 74.2 19 -1.2 29.9
19:30 1016 30 845 24.95 23.3 74 18 -1.9 28.6
19:35 1016 30 845 24.95 23.2 73.8 18 -2 28.4
19:40 1016 30 845 24.95 23.1 73.5 19 -1.8 28.8
19:45 1016 30 845 24.95 22.8 73.1 19 -1.7 28.9
19:50 1016 30 845 24.95 22.7 72.8 20 -1.4 29.5
19:55 1016 30 845 24.95 22.2 72 22 -0.6 30.9
20:00 1016 30 845 24.95 21.6 70.9 22 -1 30.2
20:05 1016 30 845 24.95 21.4 70.5 21 -1.7 29
20:10 1016 30 845 24.95 21.3 70.4 21 -1.5 29.3
20:15 1016 30 845 24.95 21.2 70.2 20 -2.5 27.6
20:20 1016 30 845 24.95 21.1 70 19 -3.1 26.5
20:25 1016 30 846 24.98 21 69.7 19 -3.2 26.2
20:30 1017 30.03 846 24.98 20.7 69.3 20 -2.9 26.7
20:35 1017 30.03 846 24.98 20.6 69 21 -2.7 27.2
20:40 1017 30.03 846 24.98 20.3 68.5 18 -4.6 23.8
20:45 1017 30.03 846 24.98 20.2 68.3 20 -3.6 25.4
20:50 1017 30.03 846 24.98 20.1 68.1 19 -4.2 24.5
20:55 1017 30.03 846 24.98 20 67.9 18 -4.7 23.5
21:00 1017 30.03 846 24.98 19.8 67.7 18 -4.7 23.5
21:05 1017 30.03 846 24.98 19.7 67.4 18 -5.1 22.9
21:10 1017 30.03 846 24.98 19.6 67.3 17 -5.6 21.9
21:15 1017 30.03 846 24.98 19.6 67.3 16 -6.8 19.8
21:20 1017 30.03 847 25.01 19.6 67.3 17 -5.8 21.6
21:25 1017 30.03 847 25.01 19.6 67.2 20 -4.2 24.5
21:30 1017 30.03 847 25.01 19.4 66.9 21 -3.3 26
21:35 1017 30.03 847 25.01 19.1 66.4 22 -3 26.6
21:40 1017 30.03 847 25.01 18.9 66 23 -2.7 27.2
21:45 1018 30.06 847 25.01 18.7 65.6 22 -3 26.5
21:50 1018 30.06 847 25.01 18.5 65.3 23 -2.9 26.8
21:55 1018 30.06 847 25.01 18.3 64.9 23 -3.2 26.3
22:00 1018 30.06 847 25.01 18.1 64.5 23 -3.4 25.9
22:05 1018 30.06 847 25.01 17.9 64.1 23 -3.2 26.2
22:10 1018 30.06 847 25.01 17.7 63.8 23 -3.6 25.6
22:15 1018 30.06 847 25.01 17.5 63.5 23 -3.7 25.4
22:20 1018 30.06 847 25.01 17.3 63.2 23 -3.7 25.3
22:25 1018 30.06 847 25.01 17.1 62.8 24 -3.7 25.3
22:30 1018 30.06 847 25.01 16.9 62.3 25 -3.4 25.8
22:35 1018 30.06 848 25.04 16.5 61.6 25 -3.6 25.6
22:40 1018 30.06 848 25.04 16.1 61.1 26 -3.5 25.7
22:45 1018 30.06 848 25.04 15.9 60.7 26 -3.6 25.5
22:50 1018 30.06 848 25.04 15.9 60.7 24 -4.4 24.1
22:55 1018 30.06 848 25.04 16 60.8 24 -4.6 23.7
23:00 1019 30.09 848 25.04 16.1 61 23 -4.8 23.4
23:05 1019 30.09 848 25.04 16.2 61.1 23 -4.7 23.5
23:10 1019 30.09 848 25.04 16.1 61.1 23 -5 23
23:15 1019 30.09 848 25.04 16.1 60.9 23 -5 23
23:20 1019 30.09 848 25.04 16 60.9 23 -4.9 23.2
23:25 1019 30.09 848 25.04 16 60.7 23 -5.3 22.4
23:30 1019 30.09 848 25.04 16 60.8 22 -5.4 22.4
23:35 1019 30.09 848 25.04 15.9 60.6 23 -5 23
23:40 1019 30.09 848 25.04 15.8 60.4 23 -5.2 22.7
23:45 1019 30.09 849 25.07 15.7 60.3 24 -4.7 23.5
23:50 1019 30.09 849 25.07 15.7 60.3 23 -5.3 22.4
23:55 1019 30.09 849 25.07 15.7 60.2 22 -5.8 21.6
24:00 1019 30.09 849 25.07 15.7 60.3 22 -5.7 21.8